Regional Weather Roundup
Issued by NWS

Home | Current Version | Previous Version | Text Only | Print | Product List | Glossary On
Versions: 1 2 3 4 5 6 7 8 9 10 11 12 13 14 15 16 17 18 19 20 21 22 23 24 25 26 27 28 29 30 31 32 33 34 35 36 37 38 39 40 41 42 43 44 45 46 47 48 49 50
000
ASUS44 KJAN 031603
RWRMS

MISSISSIPPI HOURLY WEATHER ROUNDUP
NATIONAL WEATHER SERVICE JACKSON MS
1000 AM CST TUE MAR 03 2015

NOTE: "FAIR: INDICATES FEW OR NO CLOUDS BELOW 12,000 FEET WITH NO
SIGNIFICANT WEATHER AND/OR OBSTRUCTIONS TO VISIBILITY.

MSZ001>002-007>008-010>013-018>021-025>028-034>036-031700-
NORTHWEST MISSISSIPPI

CITY           SKY/WX    TMP DP  RH WIND       PRES   REMARKS
CLARKSDALE     CLOUDY    48  48 100 S8        30.09F VSB 1/4
CLEVELAND      FOG       48  48 100 S6        30.08F VSB 1/2
GREENWOOD      CLOUDY    61  59  93 S6        30.09S
GREENVILLE     FOG       49  48  97 SW5       30.08S VSB 1/2
OLIVE BRANCH   DRZL/FOG  50  50 100 S8        30.07F VSB 1/2
OXFORD         FOG       50  50 100 S5        30.11F VSB 1/2
TUNICA         FOG       46  46 100 S6        30.08F VSB 1/2
$$

MSZ003>006-009-014>017-022>024-029>033-037>039-031700-
NORTHEAST MISSISSIPPI

CITY           SKY/WX    TMP DP  RH WIND       PRES   REMARKS
COLUMBUS AFB   FOG       55  55 100 S6        30.13S VSB 1
CORINTH        FOG       52  52 100 S7        30.10F VSB 1
GOLDN TRIANGLE CLOUDY    54  54 100 SE7       30.13S FOG
STARKVILLE     CLOUDY    54  54 100 CALM      30.13S FOG
TUPELO         FOG       52  51  97 SW10      30.12S VSB 1/2
$$

MSZ040-058-031700-
CENTRAL MISSISSIPPI

CITY           SKY/WX    TMP DP  RH WIND       PRES   REMARKS
JACKSON INTL   CLOUDY    65  64  97 S6        30.11F FOG
JACKSON HAWKNS CLOUDY    62  61  96 S6        30.11S FOG
MERIDIAN KEY   CLOUDY    61  61 100 S7        30.14F FOG
MERIDIAN NAS   CLOUDY    60  59  96 CALM      30.14F
VICKSBURG      CLOUDY    58  57  97 S5        30.10S
$$

MSZ059>079-031700-
SOUTH MISSISSIPPI

CITY           SKY/WX    TMP DP  RH WIND       PRES   REMARKS
BROOKHAVEN     CLOUDY    66  66 100 S10       30.13S
HATTIESBURG    CLOUDY    68  67  96 SE10      30.15F
MCCOMB         CLOUDY    67  67 100 S8        30.12S
NATCHEZ        CLOUDY    64  63  94 S9        30.10F
PINE BELT      CLOUDY    66  64  94 SE10      30.16S
$$

MSZ080>082-031700-
COASTAL MISSISSIPPI

CITY           SKY/WX    TMP DP  RH WIND       PRES   REMARKS
BAY ST LOUIS   PTSUNNY   72  64  78 SE9G17    30.16S
BILOXI         PTSUNNY   69  69 100 SE8       30.16F
PASCAGOULA     CLOUDY    69  65  86 SE8       30.17F
GULFPORT       PTSUNNY   69  65  86 SE12      30.16S
$$



USA.gov is the U.S. government's official web portal to all federal, state and local government web resources and services.